This is the latest recevied weather packets stored in our database for station/object W5MAI. If no packets are shown the sender has not sent any weather packets the latest 10 day(s).
| Time | Temp. | Humidity | Pressure | Rain* | Wind** | Luminosity | Snow |
|---|---|---|---|---|---|---|---|
| 1788202404 | 33.33° C | 50% | 1018.1 hPa | 0 mm | - | 947 W/m² | - |
| 1788200615 | 33.33° C | 54% | 1018.3 hPa | 0 mm | - | 949 W/m² | - |
| 1788200030 | 32.78° C | 52% | 1018.5 hPa | 0 mm | - | 211 W/m² | - |
| 1788199446 | 33.33° C | 53% | 1018.5 hPa | 0 mm | - | 954 W/m² | - |
| 1788198864 | 33.33° C | 54% | 1018.6 hPa | 0 mm | - | 930 W/m² | - |
| 1788198220 | 32.22° C | 56% | 1018.7 hPa | 0 mm | - | 926 W/m² | - |
| 1788197640 | 32.22° C | 56% | 1018.7 hPa | 0 mm | - | 888 W/m² | - |
| 1788197055 | 32.22° C | 58% | 1018.8 hPa | 0 mm | - | 271 W/m² | - |
| 1788196409 | 31.67° C | 59% | 1018.8 hPa | 0 mm | - | 896 W/m² | - |
| 1788195823 | 32.22° C | 57% | 1019 hPa | 0 mm | - | 872 W/m² | - |
| 1788195218 | 31.67° C | 61% | 1019.1 hPa | 0 mm | - | 868 W/m² | - |
| 1788194647 | 31.67° C | 62% | 1019.2 hPa | 0 mm | - | 853 W/m² | - |
| 1788194053 | 31.11° C | 63% | 1019.2 hPa | 0 mm | - | 819 W/m² | - |
| 1788193404 | 31.11° C | 65% | 1019.3 hPa | 0 mm | - | 754 W/m² | - |
| 1788192817 | 30.56° C | 65% | 1019.4 hPa | 0 mm | - | 726 W/m² | - |
| 1788192217 | 30.56° C | 68% | 1019.2 hPa | 0 mm | - | 689 W/m² | - |
| 1788191644 | 30° C | 70% | 1019.2 hPa | 0 mm | - | 689 W/m² | - |
| 1788191051 | 30° C | 72% | 1019.1 hPa | 0 mm | - | 640 W/m² | - |
| 1788190447 | 29.44° C | 73% | 1018.9 hPa | 0 mm | - | 601 W/m² | - |
| 1788189861 | 29.44° C | 74% | 1018.9 hPa | 0 mm | - | 599 W/m² | - |
| 1788188611 | 28.33° C | 77% | 1018.8 hPa | 0 mm | - | 512 W/m² | - |
| 1788188039 | 27.78° C | 82% | 1018.7 hPa | 0 mm | - | 496 W/m² | - |
| 1788187404 | 27.78° C | 83% | 1018.9 hPa | 0 mm | - | 512 W/m² | - |
| 1788186245 | 26.67° C | 85% | 1018.8 hPa | 0 mm | - | 79 W/m² | - |
| 1788185639 | 26.67° C | 86% | 1018.9 hPa | 0 mm | - | 109 W/m² | - |
* Rain latest hour (hover to see other rain measurements)
** Current wind speed in m/s (hover to see current wind gust speed)